{"data":{"norad_id":60135,"epoch":"2026-05-24T22:54:12.897216Z","epoch_age_seconds":75621,"freshness":"FRESH","line1":"1 60135U 24120A   26144.95431594  .00000822  00000+0  39864-4 0  9996","line2":"2 60135  53.1608 325.6103 0001171  94.0968 266.0167 15.30195715108055","mean_motion":15.30195715,"eccentricity":0.0001171,"inclination_deg":53.1608,"raan_deg":325.6103,"arg_perigee_deg":94.0968,"mean_anomaly_deg":266.0167,"bstar":3.9864e-5,"rev_number":10805,"period_min":94.105609229209,"perigee_km":474.42533466127,"apogee_km":476.03039271234,"semimajor_km":6853.3648636868,"source":"CELESTRAK","updated_at":"2026-05-25T13:38:19.170015Z"}}